OBJECT C, 44854

Orbit data source: Space-Track

You're viewing an Uncataloged Satellite

Recently launched and/or uncataloged satellites may have evolving metadata. Metadata may include but not limited to: Owner, Maufacturer, Bus, Motor, and Mission.

OBJECT C, 44854 is a satellite in LEO that was launched on Wed, 11 Dec 2019 UTC via a PSLV-QL launch vehicle from the Sirharikota (SRI). Unknown objects in Earth's orbit typically refer to objects detected orbiting the Earth but have not yet been identified or cataloged. These objects could be anything from previously untracked satellites, spent rocket stages, debris from satellite collisions, or even natural meteoroids temporarily captured by Earth's gravity.

Loading next visibility...
Identifier
44854, 2019-089C
Orbit
LEO
Country
Flag of TBDTBD
Related business
Manufacturer
Herzliya
Mission
Operational Amateur Imaging
Bus & Motor
CUBESAT 3U, Unknown motor
Mass
4 kg wet, 4 kg dry
Launch date (UTC)
2019-12-11 (6 years ago)
Launch vehicle
PSLV-QL
Launch site
Sirharikota (SRI)
Object type
Unknown
Shape & HBR
Box, Unknown HBR
Radar Cross Section
0.035 m², Small (<0.1 m²)

Expand to show TLE details & history
Last TLE update: 8 hours ago

TLE from 8 hours ago
0 OBJECT C
1 44854U 19089C   25295.87547066  .00176604  00000-0  15043-2 0  9997
2 44854  36.9337 205.3046 0009990 276.5683  83.3943 15.68021073324071
Epoch: 2025-10-22T21:00Z
TLE epoch observation values (Epoch: 2025-10-22T21:00:40.665Z)
Latitude
-0.00001°
Longitude
-141.40765°
Altitude
362.89 km
Speed
7.694 km/s
True Right ascension
13h 41m 13s
True Declination
0° 00' 00"
Sunlit
Object was in daylight at epoch
Visualization orbit readout
Latitude
Unknown
Longitude
Unknown
Altitude
Unknown
Speed
Unknown
Apparent Right ascension
Unknown
Apparent Declination
Unknown
Sunlit
N/A
Visualization observer readout
Local Sidereal Time
00:02:31
Azimuth
Unknown
Elevation
Unknown
Doppler factor
Unknown
Orbital elements
Apogee altitude
374.302 km
Perigee altitude
360.824 km
Semi-major axis
6,745.7 km
Eccentricity
0.001
Inclination
36.9337°
RAAN
205.3046°
Arg. of periapsis
276.5683°
True anomaly
83.50803°
Mean anomaly
83.3943°
Eccentric anomaly
83.45117°
Mean motion
3.91744 °/min
Orbital period
91.9 mins
BSTAR
0.0015043
Loading maneuver chart data...
Computing Atmospheric mass density...
Loading historical data...
Loading historical data...
Loading historical data...
Loading historical data...
Loading historical data...
Loading historical data...
Loading historical data...

Documentation

Showing up to 5 results
|